Weather in Yuryevo

Russia / Novgorod Oblast     58°02′34″N   31°35′13″E
temp.,
°C
wind,
m/s
gust,
m/s
humid.,
%
clouds,
%
prec.,
mm/h
press.,
hPa
HPBL,
m
22 may, sun
sun2200:00+7e312625 0.0 1008338
03:00+4ene311731 0.0 1009299
06:00+4ene310750 0.0 1009386
09:00+9ne46480 0.0 10101094
12:00+11nne56320 0.0 10101773
15:00+13nne56280 0.0 10102024
18:00+13nne46300 0.0 10091891
21:00+7nne25550 0.0 101081
23 may, mon
mon2300:00+3nne39660 0.0 1011208
03:00+1n22750 0.0 101232
06:00+4nnw26695 0.0 1012185
09:00+9nnw464776 0.0 1012601
12:00+13nnw58436 0.0 10111523
15:00+14nnw6105289 0.0 10101677
18:00+14nnw5115560 0.0 10101350
21:00+10n396955 0.0 1010327
24 may, tue
tue2400:00+7wnw3884100 0.0 1010152
03:00+6nw3992100 0.0 1010223
06:00+6nw268617 0.0 1011244
09:00+10nnw4838100 0.0 1012748
12:00+14nnw593292 0.0 10121367
15:00+15n5924100 0.0 10121597
18:00+13nne483196 0.0 1013954
21:00+8nne375781 0.0 1014141
25 may, wed
wed2500:00+5e118199 0.0 101510
03:00+4n008844 0.0 101610
06:00+5ne00830 0.0 101753
09:00+11n11570 0.0 1016696
12:00+15nnw23410 0.0 10151171
15:00+17nnw34355 0.0 10141250
18:00+17n1239100 0.0 10131025
21:00+12se2260100 0.0 101215
26 may, thu
thu2600:00+9sse226356 0.0 101136
03:00+7se246645 0.0 100962
06:00+9se3867100 0.0 1006168
09:00+13se3860100 0.0 1004351
12:00+11sse2687100 0.3 1002216
15:00+11wsw2598100 4.4 1001407
18:00+9nw31097100 6.9 1002593
21:00+9nw2597100 7.4 1002194